| time (UTC) | temp F | wind direction | speed knots | gust knots | rain 1hr in | rain 24hr in | rain mn in | humidity % | barometer mb |
| 20260502163037 | 57 | 329 | 0.9 | 3.5 | 0.00 | 0.00 | 0.00 | 43 | 1020.6 |
| 20260502161541 | 56 | 49 | 1.7 | 4.3 | 0.00 | 0.00 | 0.00 | 42 | 1020.7 |
| 20260502151538 | 48 | 111 | 3.5 | 7.0 | 0.00 | 0.00 | 0.00 | 54 | 1021.1 |
| 20260502123044 | 34 | 107 | 5.2 | 7.0 | 0.00 | 0.00 | 0.00 | 70 | 1020.8 |
| 20260502121544 | 34 | 73 | 4.3 | 7.0 | 0.00 | 0.00 | 0.00 | 70 | 1020.7 |
| 20260502114539 | 34 | 73 | 4.3 | 7.0 | 0.00 | 0.00 | 0.00 | 70 | 1020.8 |
| 20260502113039 | 34 | 82 | 4.3 | 6.1 | 0.00 | 0.00 | 0.00 | 69 | 1020.8 |
| 20260502111554 | 35 | 100 | 5.2 | 9.6 | 0.00 | 0.00 | 0.00 | 68 | 1020.8 |
| 20260502110041 | 35 | 74 | 1.7 | 3.5 | 0.00 | 0.00 | 0.00 | 67 | 1020.9 |
| 20260502104540 | 35 | 105 | 5.2 | 7.8 | 0.00 | 0.00 | 0.00 | 67 | 1020.9 |
| 20260502103052 | 36 | 75 | 5.2 | 7.8 | 0.00 | 0.00 | 0.00 | 67 | 1020.9 |
| 20260502101538 | 36 | 69 | 2.6 | 4.3 | 0.00 | 0.00 | 0.00 | 66 | 1020.9 |
| 20260502071536 | 41 | 126 | 2.6 | 5.2 | 0.00 | 0.00 | 0.00 | 57 | 1020.8 |
| 20260502070040 | 42 | 111 | 2.6 | 5.2 | 0.00 | 0.00 | 0.00 | 57 | 1020.7 |
| 20260502064539 | 42 | 89 | 3.5 | 6.1 | 0.00 | 0.00 | 0.00 | 55 | 1020.7 |
| 20260502063039 | 43 | 107 | 5.2 | 7.0 | 0.00 | 0.00 | 0.00 | 55 | 1020.6 |
| 20260502061537 | 43 | 109 | 2.6 | 7.8 | 0.00 | 0.00 | 0.00 | 54 | 1020.6 |
| 20260502060035 | 44 | 134 | 6.1 | 9.6 | 0.00 | 0.00 | 0.00 | 54 | 1020.5 |
| 20260502054543 | 45 | 127 | 3.5 | 7.0 | 0.00 | 0.00 | 0.00 | 53 | 1020.6 |
| 20260502053039 | 45 | 125 | 4.3 | 8.7 | 0.00 | 0.00 | 0.00 | 52 | 1020.5 |
| 20260502051539 | 46 | 133 | 3.5 | 10.4 | 0.00 | 0.00 | 0.00 | 52 | 1020.4 |
| 20260502050036 | 46 | 136 | 6.1 | 9.6 | 0.00 | 0.00 | 0.00 | 51 | 1020.5 |
| 20260502044541 | 46 | 114 | 6.1 | 11.3 | 0.00 | 0.00 | 0.00 | 50 | 1020.5 |
| 20260502043040 | 47 | 131 | 9.6 | 13.9 | 0.00 | 0.00 | 0.00 | 50 | 1020.5 |
| 20260502041540 | 47 | 118 | 7.8 | 12.2 | 0.00 | 0.00 | 0.00 | 49 | 1020.4 |
| 20260502040039 | 48 | 108 | 7.0 | 11.3 | 0.00 | 0.00 | 0.00 | 47 | 1020.3 |
| 20260502034536 | 50 | 135 | 8.7 | 11.3 | 0.00 | 0.00 | 0.00 | 46 | 1020.1 |
| 20260502033046 | 52 | 145 | 7.8 | 9.6 | 0.00 | 0.00 | 0.00 | 42 | 1019.9 |
| 20260502031539 | 53 | 155 | 4.3 | 8.7 | 0.00 | 0.00 | 0.00 | 40 | 1019.7 |
| 20260502030040 | 55 | 63 | 0.9 | 2.6 | 0.00 | 0.00 | 0.00 | 39 | 1019.5 |
| 20260502024537 | 56 | 0 | 2.6 | 8.7 | 0.00 | 0.00 | 0.00 | 35 | 1019.1 |
| 20260502023037 | 57 | 265 | 5.2 | 10.4 | 0.00 | 0.00 | 0.00 | 35 | 1018.8 |
| 20260502021535 | 60 | 233 | 3.5 | 7.8 | 0.00 | 0.00 | 0.00 | 35 | 1018.7 |
| 20260502020039 | 62 | 253 | 2.6 | 6.1 | 0.00 | 0.00 | 0.00 | 32 | 1018.6 |
| 20260502014544 | 64 | 249 | 3.5 | 7.0 | 0.00 | 0.00 | 0.00 | 31 | 1018.6 |
| 20260502013044 | 64 | 272 | 2.6 | 6.1 | 0.00 | 0.00 | 0.00 | 30 | 1018.6 |
| 20260502011536 | 64 | 224 | 2.6 | 6.1 | 0.00 | 0.00 | 0.00 | 29 | 1018.5 |
| 20260502010047 | 65 | 322 | 0.0 | 6.1 | 0.00 | 0.00 | 0.00 | 28 | 1018.6 |
| 20260502004553 | 64 | 341 | 1.7 | 4.3 | 0.00 | 0.00 | 0.00 | 25 | 1018.6 |
| 20260502003037 | 65 | 286 | 2.6 | 8.7 | 0.00 | 0.00 | 0.00 | 26 | 1018.6 |
| 20260502001536 | 66 | 316 | 3.5 | 8.7 | 0.00 | 0.00 | 0.00 | 26 | 1018.5 |
| 20260502000052 | 65 | 267 | 3.5 | 8.7 | 0.00 | 0.00 | 0.00 | 23 | 1018.7 |
| 20260501234540 | 66 | 305 | 1.7 | 5.2 | 0.00 | 0.00 | 0.00 | 24 | 1018.8 |
| 20260501233041 | 66 | 315 | 3.5 | 11.3 | 0.00 | 0.00 | 0.00 | 22 | 1018.7 |
| 20260501231540 | 66 | 276 | 0.9 | 6.1 | 0.00 | 0.00 | 0.00 | 28 | 1018.7 |
| 20260501230036 | 66 | 96 | 2.6 | 6.1 | 0.00 | 0.00 | 0.00 | 22 | 1018.8 |
| 20260501224542 | 65 | 97 | 1.7 | 7.0 | 0.00 | 0.00 | 0.00 | 28 | 1018.9 |
| 20260501223040 | 65 | 232 | 2.6 | 7.0 | 0.00 | 0.00 | 0.00 | 22 | 1018.9 |
| 20260501221538 | 66 | 223 | 2.6 | 8.7 | 0.00 | 0.00 | 0.00 | 23 | 1019.1 |
| 20260501220042 | 63 | 45 | 2.6 | 5.2 | 0.00 | 0.00 | 0.00 | 22 | 1019.4 |
| 20260501214537 | 64 | 202 | 1.7 | 6.1 | 0.00 | 0.00 | 0.00 | 21 | 1019.7 |
| 20260501213044 | 65 | 246 | 2.6 | 9.6 | 0.00 | 0.00 | 0.00 | 21 | 1019.7 |
| 20260501211541 | 62 | 266 | 0.9 | 4.3 | 0.00 | 0.00 | 0.00 | 26 | 1019.8 |
| 20260501210040 | 63 | 174 | 3.5 | 10.4 | 0.00 | 0.00 | 0.00 | 23 | 1019.9 |
| 20260501204546 | 63 | 94 | 2.6 | 7.0 | 0.00 | 0.00 | 0.00 | 24 | 1020.1 |
| 20260501203036 | 61 | 252 | 1.7 | 5.2 | 0.00 | 0.00 | 0.00 | 26 | 1020.1 |
| 20260501201536 | 63 | 224 | 3.5 | 8.7 | 0.00 | 0.00 | 0.00 | 24 | 1020.3 |
| 20260501200035 | 63 | 259 | 2.6 | 8.7 | 0.00 | 0.00 | 0.00 | 28 | 1020.3 |
| 20260501194543 | 62 | 175 | 3.5 | 8.7 | 0.00 | 0.00 | 0.00 | 27 | 1020.4 |
| 20260501193038 | 60 | 201 | 1.7 | 6.1 | 0.00 | 0.00 | 0.00 | 27 | 1020.7 |
| 20260501191538 | 58 | 34 | 1.7 | 9.6 | 0.00 | 0.00 | 0.00 | 26 | 1020.8 |
| 20260501190036 | 58 | 355 | 2.6 | 10.4 | 0.00 | 0.00 | 0.00 | 34 | 1021.0 |
| 20260501184535 | 58 | 13 | 3.5 | 9.6 | 0.00 | 0.00 | 0.00 | 33 | 1020.9 |
| 20260501183041 | 59 | 0 | 1.7 | 7.8 | 0.00 | 0.00 | 0.00 | 28 | 1021.2 |
| 20260501181539 | 59 | 360 | 1.7 | 7.8 | 0.00 | 0.00 | 0.00 | 38 | 1021.3 |
| 20260501180041 | 59 | 126 | 4.3 | 13.9 | 0.00 | 0.00 | 0.00 | 32 | 1021.4 |
| 20260501174552 | 58 | 87 | 4.3 | 10.4 | 0.00 | 0.00 | 0.00 | 34 | 1021.5 |
| 20260501173047 | 57 | 35 | 1.7 | 8.7 | 0.00 | 0.00 | 0.00 | 35 | 1021.5 |